Flag for Canada Weather past 2 weeks in Kingston, Ontario, Canada

Now
46 °F

Passing clouds.


Feels Like: 40 °F
Forecast: 40 / 55 °F
Wind: 15 mph from Northeast

Location: Kingston

Current Time: Oct 23, 2014 at 10:01:38 AM

Latest Report: Oct 23, 2014 at 9:00 AM


Visibility: 15 mi

Pressure: 30.07 "Hg

Humidity: 66%

Dew point: 36 °F

Location of KingstonLocation

Historic Weather in Kingston — Graph

°F

Kingston temperature yesterday

Maximum temperature yesterday: 52 °F (at 1:00 PM)
Minimum temperature yesterday: 43 °F (at 7:00 AM)
Average temperature yesterday: 48 °F

Past Weeks' High & Low Weather Summary

 TemperatureHumidityPressure
High70 °F (Oct 14, 2:00 PM)100% (Oct 12, 8:00 AM)30.31 "Hg (Oct 12, 8:00 AM)
Low32 °F (Oct 12, 7:00 AM)46% (Oct 19, 3:00 PM)29.47 "Hg (Oct 18, 6:00 AM)
Average53 °F78%29.93 "Hg
* Reported Oct 8 9:00 AM — Oct 23 9:00 AM, Kingston, Weather by CustomWeather, © 2014

Note: Actual official high and low records may vary slightly from our data, if they occured in-between our weather recording intervals... More about our weather records

Advertising

Kingston weather history for previous 24 hours

 ConditionsComfort  
Time TempWeatherWind HumidityBarometerVisibility
9:00 AM
Oct 23
46 °FPassing clouds.15 mph66%30.07 "Hg15 mi
8:00 AM45 °FPassing clouds.13 mph71%30.09 "Hg15 mi
7:00 AM45 °FPassing clouds.13 mph71%30.09 "Hg15 mi
6:00 AM45 °FPassing clouds.15 mph71%30.10 "Hg15 mi
11:00 PM
Oct 22
46 °FClear.12 mph82%30.17 "Hg15 mi
10:00 PM46 °FClear.10 mph82%30.19 "Hg15 mi
9:00 PM46 °FClear.9 mph82%30.20 "Hg15 mi
8:00 PM48 °FPassing clouds.10 mph76%30.20 "Hg15 mi
7:00 PM50 °FPartly sunny.13 mph71%30.21 "Hg15 mi
6:00 PM50 °FPartly sunny.14 mph71%30.20 "Hg15 mi
5:00 PM50 °FPartly sunny.17 mph71%30.20 "Hg15 mi
4:00 PM52 °FBroken clouds.16 mph67%30.20 "Hg15 mi
3:00 PM50 °FPartly sunny.17 mph67%30.20 "Hg15 mi
2:00 PM50 °FMore clouds than sun.15 mph67%30.22 "Hg15 mi
1:00 PM52 °FScattered clouds.13 mph62%30.22 "Hg15 mi
12:00 PM50 °FScattered clouds.16 mph62%30.23 "Hg15 mi
11:00 AM48 °FScattered clouds.21 mph66%30.23 "Hg15 mi
10:00 AM46 °FPartly sunny.12 mph71%30.23 "Hg15 mi
Weather by CustomWeather, © 2014

See weather overviewHow to use our weather pages